Regional Weather Roundup
Issued by NWS Columbia, SC

Home | Current Version | Previous Version | Text Only | Print | Product List | Glossary On
Versions: 1 2 3 4 5 6 7 8 9 10 11 12 13 14 15 16 17 18 19 20 21 22 23 24 25 26 27 28
000
ASUS42 KCAE 230310
RWRCAE
REGIONAL WEATHER ROUNDUP
NATIONAL WEATHER SERVICE COLUMBIA SC
1000 PM EST WED FEB 22 2017

NOTE: "FAIR" INDICATES FEW OR NO CLOUDS BELOW 12,000 FEET WITH NO
SIGNIFICANT WEATHER AND/OR OBSTRUCTIONS TO VISIBILITY.

NOT ALL STATIONS ARE QUALITY CONTROLLED BY THE NATIONAL
WEATHER SERVICE. USE DATA WITH CAUTION...ESPECIALLY
DEWPOINT OBSERVATIONS.

SCZ001>056-GAZ040-063>065-077-230400-
...UPSTATE SOUTH CAROLINA...

CITY           SKY/WX    TMP DP  RH WIND       PRES   REMARKS
ANDERSON       PTCLDY    59  54  83 NE6       29.93R
LIBERTY        CLOUDY    57  54  89 E3        29.93S
SPARTANBURG    PTCLDY    57  52  82 N6        29.94R
CLEMSON        CLOUDY    61  55  81 NE5       29.94R
GREENVILLE     CLOUDY    58  54  86 N10       29.94R
GREENWOOD      CLOUDY    59  54  83 N5        29.93R
GREER          CLOUDY    58  53  84 N7        29.93R
ROCK HILL      CLOUDY    60  54  80 CALM      29.93S
CHESTER        CLOUDY    59  54  82 NE3       29.93S
LAURENS        CLOUDY    59  54  82 N6        29.92S


...CENTRAL SOUTH CAROLINA...

CITY           SKY/WX    TMP DP  RH WIND       PRES   REMARKS
COLUMBIA APT   CLOUDY    65  56  72 E3        29.90S
COLUMBIA OWENS PTCLDY    66  55  67 VRB3      29.92S
MCENTIRE ANGB  CLEAR     62  56  80 CALM      29.91S
ORANGEBURG     MOCLDY    63  57  81 CALM      29.90F
SUMTER SHAW    CLOUDY    64  55  72 SE7       29.89S
AIKEN          FAIR      63  54  72 E5        29.93S
BARNWELL       FAIR      66  61  82 E8        29.89F
MANNING        FAIR      57  37  47 MISG      29.91F
CAMDEN         FAIR      63  55  77 CALM      29.93S
LANCASTER      PTCLDY    63  57  82 E5        29.93R
WINNSBORO      CLOUDY    63  54  72 SE3       29.91S


...EASTERN AND COASTAL SOUTH CAROLINA...

CITY           SKY/WX    TMP DP  RH WIND       PRES   REMARKS
MYRTLE BEACH   MOCLDY    63  55  77 E8        29.95F
N MYRTLE BCH   MOCLDY    60  55  83 NE6       29.93F
CONWAY         FAIR      55  54  94 CALM      29.94S
MARION         FAIR      61  54  77 SE3       29.94F
HARTSVILLE     FAIR      61  52  72 SE3       29.93S
FLORENCE       CLOUDY    62  55  77 SE6       29.93F
DARLINGTON     CLOUDY    61  54  77 SE5       29.93F
CHARLESTON APT CLOUDY    63  58  83 NE7       29.89F
MOUNT PLEASANT FAIR      61  59  94 CALM      29.90F
WALTERBORO     CLOUDY    61  59  94 NE5       29.90F
BEAUFORT       CLOUDY    63  61  93 NE6       29.87F


...EASTERN GEORGIA...

CITY           SKY/WX    TMP DP  RH WIND       PRES   REMARKS
AUGUSTA BUSH F MOCLDY    64  58  80 SE6       29.87F
AUGUSTA DANIEL CLOUDY    66  56  70 E5        29.89S
THOMSON        CLOUDY    63  63 100 CALM      29.94R
WASHINGTON     MOCLDY    63  61  94 N3        29.90S
CLAXTON        CLOUDY   N/A N/A N/A NE7       29.85F
SYLVANIA       MOCLDY   N/A N/A N/A E7        29.88F
STATESBORO     CLOUDY    64  64 100 E3        29.87S
SAVANNAH       CLOUDY    64  60  87 NE7       29.85F


...SOUTHERN NORTH CAROLINA...

CITY           SKY/WX    TMP DP  RH WIND       PRES   REMARKS
CHARLOTTE      CLOUDY    60  53  77 N5        29.94R
MONROE         CLOUDY    61  53  75 N3        29.92S
WADESBORO      MOCLDY    61  52  73 CALM      29.92S
ROCKINGHAM     CLOUDY    61  53  73 SE5       29.93S
RUTHERFORDTON  CLOUDY    55  55  98 CALM      29.96S
ASHEVILLE      CLOUDY    54  51  90 CALM      29.96S

$$




USA.gov is the U.S. government's official web portal to all federal, state and local government web resources and services.